FENGYUN 1C DEB

Satellite information

Favourite Embed

Satellite Type and Status

DEBRISIN ORBIT

Key statistics

Satellite FENGYUN 1C DEB at a glance.

Uptime

9495

Days in orbit

Revolutions

≈ 14.3

Per day

Orbit

SSO

Sun Synchronous Orbit

Inclination

98.2

Latest

Satellite identification and parameters

Extended collection of information and parameters for FENGYUN 1C DEB.

Object identification

Identified? True

Debris? True

Object name: FENGYUN 1C DEB

International designator: 1999-025AGS

Object number (NORAD): 30480

Object ID (CCSDS): 30480

Country: PEOPLES REPUBLIC OF CHINA (PRC)

Current information (Y/N): Y

RCS size: SMALL

Orbital parameters

Period: 100.476 minutes

Inclination: 98.2361 deg

SMA: 7159.279 km

Apoapsis: 901.44 km

Periapsis: 660.848 km

RAAN: 153.2391 deg

Eccentricy: 0.0168028

Argument of periapsis: 79.8222 deg

Mean anomaly: 90.6663 deg

Mean motion: 14.33173726 rev/day

Mean motion (dot): 0.00001202 rev/day2

B* drag term: 0.00038747 1/REarth

Two-line elements (TLE)

Creation date: May 8, 2025, 3:01 a.m.

Reference frame: TEME

Reference center: EARTH

Epoch: May 7, 2025, 8:10 p.m. UTC

TLE line 0: 0 FENGYUN 1C DEB

TLE line 1: 1 30480U 99025AGS 25127.84089534 .00001202 00000-0 38747-3 0 9995

TLE line 2: 2 30480 98.2361 153.2391 0168028 79.8222 90.6663 14.33173726955326

Live tracking on map

Real-time ground track for satellite FENGYUN 1C DEB.

In-orbit conjunctions

A list of the most updated potential collisions computed for object FENGYUN 1C DEB.

Target Orbit TCA Probability of collision Miss distance Type
FENGYUN 1C DEB SSO 2025-04-01 18:18:14 0.0001792451 81.0 (m) DEBRIS
CZ-6A DEB LEO 2024-12-21 13:53:43 0.0005924 127.0 (m) DEBRIS
COSMOS 2251 DEB LEO 2024-10-23 21:43:25 0.0001000639 154.0 (m) DEBRIS

Associated space launch

Chinese polar orbiting meteorological satellite

FENGYUN 1C DEB was lifted into orbit during the mission ‘Long March 4B | Feng Yun 1C’, on board a Long March 4B space rocket.

The launch took place on May 10, 1999, 1:33 a.m. from Launch Complex 7.

For more information about the launch, click the button.

Launch to space Long March 4B | Feng Yun 1C
Long March 4B | Feng Yun 1C

Agency: N/A

Status: Launch Successful

Launch date: May 10, 1999, 1:33 a.m. UTC

Rocket: Long March 4B

Launch pad: Launch Complex 7

Location: Taiyuan Satellite Launch Center, People's Republic of China

...

Latest news about this satellite

There are no fresh news available about this satellite. Check back as we update our databases every day.


Newsletter sign-up

Weekly statistics, charts and insights to help you stay on top of the space industry.